| time (UTC) | temp C | wind direction | speed KPH | gust KPH | rain 1hr cm | rain 24hr cm | rain mn cm | humidity % | barometer mb |
| 20260502194523 | 12 | 318 | 0.0 | 3.2 | 0.00 | 0.76 | 0.76 | 94 | |
| 20260502193523 | 12 | 318 | 0.0 | 3.2 | 0.00 | 0.76 | 0.76 | 94 | |
| 20260502192522 | 12 | 0.0 | 0.0 | 0.00 | 0.76 | 0.76 | 93 | ||
| 20260502191523 | 12 | 0.0 | 0.0 | 0.00 | 0.76 | 0.76 | 93 | ||
| 20260502190522 | 12 | 318 | 0.0 | 1.6 | 0.00 | 0.76 | 0.76 | 93 | |
| 20260502185523 | 12 | 0.0 | 0.0 | 0.00 | 0.76 | 0.76 | 93 | ||
| 20260502184523 | 12 | 318 | 0.0 | 1.6 | 0.00 | 0.76 | 0.76 | 93 | |
| 20260502183523 | 12 | 0.0 | 0.0 | 0.05 | 0.76 | 0.76 | 93 | ||
| 20260502182523 | 12 | 318 | 0.0 | 1.6 | 0.08 | 0.76 | 0.76 | 93 | |
| 20260502181523 | 12 | 318 | 0.0 | 3.2 | 0.13 | 0.76 | 0.76 | 93 | |
| 20260502180523 | 12 | 0.0 | 0.0 | 0.15 | 0.76 | 0.76 | 93 | ||
| 20260502163523 | 14 | 306 | 0.0 | 3.2 | 0.33 | 0.33 | 0.33 | 88 | |
| 20260502162523 | 15 | 306 | 0.0 | 3.2 | 0.15 | 0.15 | 0.15 | 85 | |
| 20260502161523 | 15 | 0.0 | 0.0 | 0.08 | 0.08 | 0.08 | 82 | ||
| 20260502160523 | 16 | 0.0 | 0.0 | 0.05 | 0.05 | 0.05 | 74 | ||
| 20260502151523 | 17 | 321 | 3.2 | 9.7 | 0.00 | 0.00 | 0.00 | 61 | |
| 20260502150523 | 18 | 320 | 3.2 | 6.4 | 0.00 | 0.00 | 0.00 | 60 | |
| 20260502130523 | 18 | 31 | 1.6 | 4.8 | 0.00 | 0.00 | 0.00 | 54 | |
| 20260502123523 | 18 | 306 | 3.2 | 6.4 | 0.00 | 0.00 | 0.00 | 55 | |
| 20260502122523 | 18 | 122 | 3.2 | 6.4 | 0.00 | 0.00 | 0.00 | 56 | |
| 20260502121523 | 18 | 295 | 1.6 | 6.4 | 0.00 | 0.00 | 0.00 | 54 | |
| 20260502120523 | 18 | 319 | 1.6 | 4.8 | 0.00 | 0.00 | 0.00 | 54 | |
| 20260502115523 | 17 | 315 | 1.6 | 4.8 | 0.00 | 0.00 | 0.00 | 59 | |
| 20260502114523 | 17 | 314 | 3.2 | 6.4 | 0.00 | 0.00 | 0.00 | 59 | |
| 20260502113523 | 17 | 268 | 1.6 | 4.8 | 0.00 | 0.00 | 0.00 | 57 | |
| 20260502112524 | 17 | 346 | 1.6 | 6.4 | 0.00 | 0.00 | 0.00 | 58 | |
| 20260502111523 | 17 | 293 | 1.6 | 4.8 | 0.00 | 0.00 | 0.00 | 57 | |
| 20260502110523 | 17 | 264 | 1.6 | 4.8 | 0.00 | 0.00 | 0.00 | 58 | |
| 20260502105523 | 16 | 132 | 0.0 | 3.2 | 0.00 | 0.00 | 0.00 | 60 | |
| 20260502104523 | 17 | 258 | 0.0 | 3.2 | 0.00 | 0.00 | 0.00 | 58 | |
| 20260502103523 | 17 | 337 | 1.6 | 3.2 | 0.00 | 0.00 | 0.00 | 60 | |
| 20260502102523 | 16 | 321 | 1.6 | 4.8 | 0.00 | 0.00 | 0.00 | 62 | |
| 20260502101523 | 17 | 256 | 1.6 | 4.8 | 0.00 | 0.00 | 0.00 | 60 | |
| 20260502100523 | 17 | 252 | 0.0 | 3.2 | 0.00 | 0.00 | 0.00 | 59 | |
| 20260502091523 | 15 | 354 | 1.6 | 3.2 | 0.00 | 0.00 | 0.00 | 67 | |
| 20260502090523 | 15 | 343 | 0.0 | 3.2 | 0.00 | 0.00 | 0.00 | 67 | |
| 20260502071523 | 12 | 0.0 | 0.0 | 0.00 | 0.00 | 0.00 | 83 | ||
| 20260502070523 | 12 | 0.0 | 0.0 | 0.00 | 0.00 | 0.00 | 82 | ||
| 20260502065523 | 11 | 0.0 | 0.0 | 0.00 | 0.00 | 0.00 | 87 | ||
| 20260502064523 | 9 | 0.0 | 0.0 | 0.00 | 0.00 | 0.00 | 94 | ||
| 20260502063523 | 9 | 0.0 | 0.0 | 0.00 | 0.00 | 0.00 | 94 | ||
| 20260502062523 | 8 | 0.0 | 0.0 | 0.00 | 0.00 | 0.00 | 94 | ||
| 20260502061523 | 8 | 0.0 | 0.0 | 0.00 | 0.00 | 0.00 | 94 | ||
| 20260502060523 | 7 | 0.0 | 0.0 | 0.00 | 0.00 | 0.00 | 95 | ||
| 20260502055523 | 7 | 0.0 | 0.0 | 0.00 | 0.00 | 0.00 | 95 | ||
| 20260502054523 | 6 | 0.0 | 0.0 | 0.00 | 0.00 | 0.00 | 95 | ||
| 20260502053523 | 6 | 0.0 | 0.0 | 0.00 | 0.00 | 0.00 | 95 | ||
| 20260502052524 | 6 | 0.0 | 0.0 | 0.00 | 0.00 | 0.00 | 94 | ||
| 20260502051523 | 5 | 0.0 | 0.0 | 0.00 | 0.00 | 0.00 | 94 | ||
| 20260502050523 | 5 | 0.0 | 0.0 | 0.00 | 0.00 | 0.00 | 94 | ||
| 20260502045523 | 5 | 0.0 | 0.0 | 0.00 | 0.00 | 0.00 | 94 | ||
| 20260502044523 | 5 | 0.0 | 0.0 | 0.00 | 0.00 | 0.00 | 94 | ||
| 20260502043523 | 5 | 0.0 | 0.0 | 0.00 | 0.00 | 0.00 | 94 | ||
| 20260502042523 | 5 | 0.0 | 0.0 | 0.00 | 0.00 | 0.00 | 94 | ||
| 20260502041523 | 5 | 0.0 | 0.0 | 0.00 | 0.00 | 0.00 | 94 | ||
| 20260502040523 | 5 | 0.0 | 0.0 | 0.00 | 0.00 | 0.00 | 94 | ||
| 20260502035523 | 5 | 0.0 | 0.0 | 0.00 | 0.00 | 0.00 | 94 | ||
| 20260502034523 | 5 | 0.0 | 0.0 | 0.00 | 0.00 | 0.00 | 94 | ||
| 20260502033523 | 5 | 0.0 | 0.0 | 0.00 | 0.00 | 0.00 | 94 | ||
| 20260502032524 | 6 | 0.0 | 0.0 | 0.00 | 0.00 | 0.00 | 94 | ||
| 20260502031523 | 6 | 0.0 | 0.0 | 0.00 | 0.00 | 0.00 | 94 | ||
| 20260502030523 | 6 | 0.0 | 0.0 | 0.00 | 0.00 | 0.00 | 94 | ||
| 20260502025523 | 6 | 0.0 | 0.0 | 0.00 | 0.00 | 0.00 | 94 | ||
| 20260502024523 | 6 | 0.0 | 0.0 | 0.00 | 0.00 | 0.00 | 94 | ||
| 20260502023523 | 6 | 0.0 | 0.0 | 0.00 | 0.00 | 0.00 | 93 | ||
| 20260502022523 | 6 | 0.0 | 0.0 | 0.00 | 0.00 | 0.00 | 93 | ||
| 20260502021523 | 6 | 0.0 | 0.0 | 0.00 | 0.00 | 0.00 | 93 | ||
| 20260502020523 | 6 | 0.0 | 0.0 | 0.00 | 0.00 | 0.00 | 93 | ||
| 20260502015523 | 7 | 0.0 | 0.0 | 0.00 | 0.00 | 0.00 | 93 | ||
| 20260502014524 | 7 | 0.0 | 0.0 | 0.00 | 0.00 | 0.00 | 93 | ||
| 20260502013523 | 7 | 0.0 | 0.0 | 0.00 | 0.00 | 0.00 | 93 | ||
| 20260502012524 | 7 | 0.0 | 0.0 | 0.00 | 0.00 | 0.00 | 93 | ||
| 20260502011523 | 7 | 0.0 | 0.0 | 0.00 | 0.00 | 0.00 | 93 | ||
| 20260502010523 | 7 | 0.0 | 0.0 | 0.00 | 0.00 | 0.00 | 92 | ||
| 20260502005523 | 7 | 0.0 | 0.0 | 0.00 | 0.00 | 0.00 | 92 | ||
| 20260502004523 | 7 | 0.0 | 0.0 | 0.00 | 0.00 | 0.00 | 92 | ||
| 20260502003524 | 7 | 0.0 | 0.0 | 0.00 | 0.00 | 0.00 | 92 | ||
| 20260502002523 | 8 | 0.0 | 0.0 | 0.00 | 0.00 | 0.00 | 91 | ||
| 20260502001524 | 8 | 0.0 | 0.0 | 0.00 | 0.00 | 0.00 | 91 | ||
| 20260502000524 | 8 | 0.0 | 0.0 | 0.00 | 0.00 | 0.00 | 91 | ||
| 20260501235524 | 8 | 276 | 0.0 | 1.6 | 0.00 | 0.00 | 0.00 | 91 | |
| 20260501234524 | 8 | 0.0 | 0.0 | 0.00 | 0.00 | 0.00 | 91 | ||
| 20260501233524 | 8 | 0.0 | 0.0 | 0.00 | 0.00 | 0.00 | 91 | ||
| 20260501232524 | 8 | 0.0 | 0.0 | 0.00 | 0.00 | 0.00 | 91 | ||
| 20260501231524 | 8 | 0.0 | 0.0 | 0.00 | 0.00 | 0.00 | 91 | ||
| 20260501230524 | 8 | 0.0 | 0.0 | 0.00 | 0.00 | 0.00 | 90 | ||
| 20260501225524 | 9 | 0.0 | 0.0 | 0.00 | 0.00 | 0.00 | 90 | ||
| 20260501224524 | 9 | 0.0 | 0.0 | 0.00 | 0.00 | 0.00 | 90 | ||
| 20260501223524 | 9 | 0.0 | 0.0 | 0.00 | 0.00 | 0.00 | 90 | ||
| 20260501222524 | 9 | 0.0 | 0.0 | 0.00 | 0.00 | 0.00 | 90 | ||
| 20260501221524 | 10 | 0.0 | 0.0 | 0.00 | 0.00 | 0.00 | 90 | ||
| 20260501220524 | 10 | 0.0 | 0.0 | 0.00 | 0.00 | 0.00 | 90 | ||
| 20260501215524 | 10 | 0.0 | 0.0 | 0.00 | 0.00 | 0.00 | 90 | ||
| 20260501214524 | 10 | 0.0 | 0.0 | 0.00 | 0.00 | 0.00 | 90 | ||
| 20260501213524 | 10 | 0.0 | 0.0 | 0.00 | 0.00 | 0.00 | 90 | ||
| 20260501212524 | 11 | 0.0 | 0.0 | 0.00 | 0.00 | 0.00 | 90 | ||
| 20260501211524 | 11 | 0.0 | 0.0 | 0.00 | 0.00 | 0.00 | 90 | ||
| 20260501210524 | 11 | 0.0 | 0.0 | 0.00 | 0.00 | 0.00 | 89 | ||
| 20260501205524 | 11 | 0.0 | 0.0 | 0.00 | 0.00 | 0.00 | 89 | ||
| 20260501204524 | 12 | 0.0 | 0.0 | 0.00 | 0.00 | 0.00 | 88 | ||
| 20260501203524 | 12 | 0.0 | 0.0 | 0.00 | 0.00 | 0.00 | 87 | ||
| 20260501202524 | 12 | 0.0 | 0.0 | 0.00 | 0.00 | 0.00 | 87 | ||
| 20260501201524 | 13 | 0.0 | 0.0 | 0.00 | 0.00 | 0.00 | 85 | ||
| 20260501200524 | 13 | 0.0 | 0.0 | 0.00 | 0.00 | 0.00 | 84 | ||
| 20260501195524 | 13 | 276 | 0.0 | 3.2 | 0.00 | 0.00 | 0.00 | 83 |